Change the Weather History Date:

Thursday, May 16, 2013

  Actual Average (KDFW) Record (KDFW)
Temperature  
Mean Temperature 71 °F 74 °F  
Max Temperature 80 °F 84 °F 94 °F (2003)
Min Temperature 62 °F 64 °F 46 °F (1945)
Degree Days  
Heating Degree Days 0 0  
Month to date heating degree days 6  
Since 1 July heating degree days 2282  
Cooling Degree Days 6 9  
Month to date cooling degree days 116  
Year to date cooling degree days 254  
Growing Degree Days 21 (Base 50)    
Moisture  
Dew Point 64 °F    
Average Humidity 84    
Maximum Humidity 94    
Minimum Humidity 65    
Precipitation  
Precipitation 0.00 in 0.16 in 4.63 in (1949)
Month to date precipitation 2.57  
Year to date precipitation 13.92  
Sea Level Pressure  
Sea Level Pressure 29.82 in    
Wind  
Wind Speed 9 mph (SSE)    
Max Wind Speed 16 mph    
Max Gust Speed 18 mph    
Visibility 10 miles    
Events      
T = Trace of Precipitation, MM = Missing Value Source: NWS Daily Summary

Daily Weather History Graph

Daily Weather History Graph

Search for Another Location

Airport or City:

Trip Planner

Search our weather history database for the weather conditions in past years. The results will help you decide how hot, cold, wet, or windy it might be!

Date:

Astronomy

May. 16, 2013 Rise Set
Actual Time 6:28 AM CDT 8:20 PM CDT
Civil Twilight 6:01 AM CDT 8:48 PM CDT
Nautical Twilight 5:28 AM CDT 9:21 PM CDT
Astronomical Twilight 4:53 AM CDT 9:56 PM CDT
Moon 11:57 AM CDT (5/16) 12:47 AM CDT (5/16)
Length of Visible Light 14h 46m
Length of Day
13h 52m
Waxing Crescent, 36% of the Moon is Illuminated
May 16
Waxing Crescent
May 17
First Quarter
May 24
Full
May 31
Last Quarter
Jun 8
New

Hourly Weather History & Observations

Time (CDT) Temp. Heat Index Dew Point Humidity Pressure Visibility Wind Dir Wind Speed Gust Speed Precip Events Conditions
1:35 AM 62.6 °F - 60.8 °F 94% 29.81 in 10.0 mi East 16.1 mph - N/A   Scattered Clouds
1:55 AM 62.6 °F - 60.8 °F 94% 29.82 in 10.0 mi East 11.5 mph - N/A   Mostly Cloudy
2:15 AM 62.6 °F - 59.0 °F 88% 29.83 in 10.0 mi ESE 10.4 mph 16.1 mph N/A   Scattered Clouds
2:35 AM 62.6 °F - 59.0 °F 88% 29.84 in 10.0 mi SE 6.9 mph - N/A   Clear
2:55 AM 62.6 °F - 59.0 °F 88% 29.85 in 10.0 mi SSE 8.1 mph - N/A   Scattered Clouds
3:55 AM 62.6 °F - 60.8 °F 94% 29.81 in 10.0 mi South 3.5 mph - N/A   Scattered Clouds
4:15 AM 62.6 °F - 60.8 °F 94% 29.81 in 10.0 mi South 6.9 mph - N/A   Clear
4:35 AM 62.6 °F - 60.8 °F 94% 29.82 in 10.0 mi South 6.9 mph - N/A   Scattered Clouds
4:55 AM 62.6 °F - 60.8 °F 94% 29.82 in 10.0 mi South 9.2 mph - N/A   Scattered Clouds
5:15 AM 62.6 °F - 60.8 °F 94% 29.83 in 10.0 mi South 5.8 mph - N/A   Scattered Clouds
5:35 AM 62.6 °F - 60.8 °F 94% 29.83 in 10.0 mi SSE 8.1 mph - N/A   Scattered Clouds
5:55 AM 62.6 °F - 59.0 °F 88% 29.82 in 10.0 mi SSE 8.1 mph - N/A   Clear
6:15 AM 62.6 °F - 59.0 °F 88% 29.82 in 10.0 mi South 6.9 mph - N/A   Clear
6:35 AM 62.6 °F - 60.8 °F 94% 29.83 in 10.0 mi South 5.8 mph - N/A   Clear
6:50 AM 64.4 °F - 60.8 °F 88% 29.83 in 10.0 mi South 6.9 mph - N/A   Clear
6:55 AM 62.6 °F - 60.8 °F 94% 29.83 in 10.0 mi South 8.1 mph - N/A   Clear
7:50 AM 64.4 °F - 60.8 °F 88% 29.83 in 10.0 mi South 6.9 mph - N/A   Clear
8:55 AM 66.2 °F - 62.6 °F 88% 29.84 in 10.0 mi South 8.1 mph 18.4 mph N/A   Overcast
9:55 AM 69.8 °F - 64.4 °F 83% 29.83 in 10.0 mi South 8.1 mph 17.3 mph N/A   Overcast
10:55 AM 69.8 °F - 66.2 °F 88% 29.85 in 10.0 mi South 8.1 mph - N/A   Overcast
11:50 AM 71.6 °F - 66.2 °F 83% 29.86 in 7.0 mi South 9.2 mph 16.1 mph N/A   Overcast
12:55 PM 75.2 °F - 66.2 °F 73% 29.84 in 10.0 mi South 13.8 mph 18.4 mph N/A   Overcast
1:55 PM 77.0 °F - 68.0 °F 74% 29.82 in 10.0 mi South 10.4 mph - N/A   Overcast
2:55 PM 78.8 °F - 68.0 °F 69% 29.81 in 10.0 mi South 11.5 mph 17.3 mph N/A   Mostly Cloudy
3:50 PM 80.6 °F 83.2 °F 68.0 °F 65% 29.79 in 10.0 mi SSE 9.2 mph - N/A   Scattered Clouds
4:50 PM 80.6 °F 83.9 °F 69.8 °F 70% 29.78 in 10.0 mi SSE 10.4 mph - N/A   Scattered Clouds
5:55 PM 80.6 °F 83.2 °F 68.0 °F 65% 29.78 in 10.0 mi SE 8.1 mph - N/A   Scattered Clouds
6:55 PM 80.6 °F 83.2 °F 68.0 °F 65% 29.77 in 10.0 mi SSE 8.1 mph - N/A   Clear
7:50 PM 78.8 °F - 68.0 °F 69% 29.77 in 10.0 mi SE 5.8 mph - N/A   Clear
8:50 PM 77.0 °F - 68.0 °F 74% 29.79 in 10.0 mi SE 3.5 mph - N/A   Clear
9:15 PM 75.2 °F - 68.0 °F 78% 29.79 in 10.0 mi SE 4.6 mph - N/A   Clear
9:35 PM 75.2 °F - 68.0 °F 78% 29.80 in 10.0 mi SE 3.5 mph - N/A   Clear
9:55 PM 73.4 °F - 68.0 °F 83% 29.81 in 10.0 mi SE 4.6 mph - N/A   Clear
10:15 PM 73.4 °F - 68.0 °F 83% 29.82 in 10.0 mi SE 3.5 mph - N/A   Scattered Clouds
10:35 PM 73.4 °F - 68.0 °F 83% 29.83 in 7.0 mi SE 3.5 mph - N/A   Overcast
10:55 PM 73.4 °F - 68.0 °F 83% 29.83 in 7.0 mi SSE 3.5 mph - N/A   Mostly Cloudy
11:15 PM 73.4 °F - 68.0 °F 83% 29.82 in 7.0 mi SE 3.5 mph - N/A   Scattered Clouds
11:55 PM 73.4 °F - 68.0 °F 83% 29.82 in 7.0 mi SE 5.8 mph - N/A   Clear